This is the latest recevied weather packets stored in our database for station/object GW1699. If no packets are shown the sender has not sent any weather packets the latest 10 day(s).
| Time | Temp. | Humidity | Pressure | Rain* | Wind** | Luminosity | Snow |
|---|---|---|---|---|---|---|---|
| 1778174852 | 16.11° C | 48% | 1010.4 hPa | 0.25 mm | - | - | - |
| 1778173752 | 14.44° C | 56% | 1010.8 hPa | 0.25 mm | - | - | - |
| 1778172695 | 13.89° C | 59% | 1010.8 hPa | 0.25 mm | - | - | - |
| 1778156868 | 9.44° C | 99% | 1012.8 hPa | 0.25 mm | - | - | - |
| 1778156487 | 9.44° C | 99% | 1012.8 hPa | 0.25 mm | - | - | - |
| 1778153606 | 8.89° C | 99% | 1012.5 hPa | 0.25 mm | - | - | - |
| 1778152513 | 8.89° C | 99% | 1012.1 hPa | 0.25 mm | - | - | - |
| 1778148212 | 8.33° C | 99% | 1012.1 hPa | 0.25 mm | - | - | - |
| 1778146424 | 8.89° C | 99% | 1011.8 hPa | 0.25 mm | - | - | - |
| 1778145310 | 8.89° C | 99% | 1011.8 hPa | 0.25 mm | - | - | - |
| 1778143165 | 8.89° C | 99% | 1011.8 hPa | 0.25 mm | - | - | - |
| 1778141017 | 8.89° C | 99% | 1011.8 hPa | 0.25 mm | - | - | - |
| 1778137390 | 9.44° C | 99% | 1011.8 hPa | 0.25 mm | - | - | - |
| 1778134169 | 9.44° C | 99% | 1011.8 hPa | 0.25 mm | - | - | - |
| 1778131308 | 10° C | 99% | 1012.1 hPa | 0.25 mm | - | - | - |
| 1778130222 | 10° C | 99% | 1012.1 hPa | 0 mm | - | - | - |
| 1778125518 | 10.56° C | 99% | 1011.8 hPa | 18.8 mm | - | - | - |
| 1778120141 | 11.11° C | 99% | 1011.5 hPa | 18.54 mm | - | - | - |
| 1778117970 | 11.67° C | 99% | 1011.5 hPa | 18.29 mm | - | - | - |
| 1778112948 | 11.67° C | 99% | 1011.1 hPa | 18.03 mm | - | - | - |
| 1778111493 | 12.22° C | 99% | 1010.4 hPa | 18.03 mm | - | - | - |
| 1778106442 | 12.22° C | 98% | 1010.8 hPa | 18.03 mm | - | - | - |
| 1778105715 | 12.78° C | 98% | 1010.4 hPa | 18.03 mm | - | - | - |
| 1778105358 | 12.78° C | 98% | 1010.4 hPa | 18.03 mm | - | - | - |
| 1778105023 | 12.22° C | 98% | 1010.4 hPa | 18.03 mm | - | - | - |
* Rain since midnight (hover to see other rain measurements)
** Current wind speed in m/s (hover to see current wind gust speed)